Regional Weather Roundup
Issued by NWS

Home | Current Version | Previous Version | Text Only | Print | Product List | Glossary On
Versions: 1 2 3 4 5 6 7 8 9 10 11 12 13 14 15 16 17 18 19 20 21 22 23 24 25 26 27 28 29 30 31 32 33 34 35 36 37 38 39 40 41 42 43 44 45 46 47 48 49 50
000
ASUS44 KFWD 261115
RWRTX
NORTH TEXAS HOURLY WEATHER ROUNDUP
NATIONAL WEATHER SERVICE FORT WORTH TX
600 AM CDT SUN APR 26 2015

NOTE: "FAIR" INDICATES FEW OR NO CLOUDS BELOW 12,000 FEET WITH NO
SIGNIFICANT WEATHER AND/OR OBSTRUCTIONS TO VISIBILITY.

TXZ118-119-261200-
DALLAS/FORT WORTH METROPLEX

CITY           SKY/WX    TMP DP  RH WIND       PRES   REMARKS
DFW AIRPORT    CLEAR     62  54  74 S6        29.65R
DALLAS LOVE    CLEAR     65  55  70 CALM      29.65S
FTW MEACHAM    CLEAR     63  54  72 S5        29.65R
DAL-EXECUTIVE  CLEAR     66  59  78 S5        29.65S
FTW-ALLIANCE   CLEAR     61  52  72 SW5       29.65R
FTW-NAS-JRB    CLEAR     65  54  67 S5        29.68
FTW-SPINKS     CLEAR     63  58  83 S7        29.67S
ARLINGTON      CLEAR     65  57  75 S7        29.65S
GRAND PRAIRIE  CLEAR     64  59  83 S7        29.66S
ADDISON        CLEAR     63  54  72 SE7       29.66F
MESQUITE       FAIR      57  55  95 S5        29.66S
LANCASTER      CLEAR     64  60  86 S3        29.67S
$$

TXZ091>094-102>105-117-120-121-131>134-261200-
NORTH CENTRAL TEXAS

CITY           SKY/WX    TMP DP  RH WIND       PRES   REMARKS
SHRMAN/DENISON CLEAR     61  54  76 S6        29.66R
GAINESVILLE    CLEAR     56  53  89 CALM      29.67S
BOWIE          CLEAR     54  51  89 CALM      29.66R
BRIDGEPORT     CLEAR     50  50 100 CALM      29.67S
DECATUR        CLEAR     66  46  48 SW8       29.66S
DENTON         CLEAR     58  52  80 SE3       29.65R
MCKINNEY       CLEAR     58  54  86 CALM      29.66R
GREENVILLE     CLEAR     55  54  94 CALM      29.67S
ROCKWALL       CLEAR     60  58  90 S7        29.65S
TERRELL        FAIR      63  59  87 S3        29.67S
WAXAHACHIE     CLEAR     61  61 100 CALM      29.68S
CLEBURNE       CLEAR     59  59 100 S6        29.69R
GRANBURY         N/A     57  52  83 CALM      29.68R
$$

TXZ083>090-098>101-113>116-127>130-139>142-154-155-261200-
WESTERN NORTH TEXAS

CITY           SKY/WX    TMP DP  RH WIND       PRES   REMARKS
WICHITA FALLS  CLEAR     57  48  72 SW14      29.63S
WF-KICKAPOO    CLEAR     60  48  64 SW6       29.66R
VERNON         PTCLDY    54  44  67 CALM      29.65R
ABILENE        CLEAR     62  39  42 SW5       29.71R
ABILENE-DYESS  CLEAR     58  43  58 SE3       29.69S
BRECKENRIDGE   CLEAR     59  44  57 S5        29.68S
GRAHAM         CLEAR     50  49  94 CALM      29.66S
MINERAL WELLS  CLEAR     54  50  86 CALM      29.66R
STEPHENVILLE   CLEAR     58  49  73 CALM      29.72R
COMANCHE       CLEAR     65  50  57 SW10      29.70S
BROWNWOOD      PTCLDY    48  48 100 CALM      29.72R
COLEMAN        CLEAR     56  47  71 SW5       29.71S
BRADY          CLEAR     59  50  72 CALM      29.72S
$$

TXZ143>147-156>162-174-175-261200-
CENTRAL TEXAS

CITY           SKY/WX    TMP DP  RH WIND       PRES   REMARKS
WACO           CLOUDY    69  68  96 S13       29.70R
WACO-MCGREGOR  CLOUDY    68  63  83 SW10      29.71R
HILLSBORO      CLEAR     67  64  90 S9        29.68S
CORSICANA      FOG       68  67  96 S10       29.70R VSB 3/4
MEXIA          FOG       68  68 100 S10G16    29.69S VSB 3/4
HEARNE         CLOUDY    67  66  95 CALM      29.72S FOG
CAMERON        MOCLDY    69  68  96 CALM      29.71R
TEMPLE         CLOUDY    70  63  78 S8        29.70S
KILLEEN        MOCLDY    69  67  94 SW6       29.70S
KILLEEN-SKYLRK CLOUDY    70  63  78 S7        29.71R
FORT HOOD      CLOUDY    69  67  93 S6        29.70R
GATESVILLE     CLEAR     66  63  88 CALM      29.73S
HAMILTON       CLEAR     58  51  78 S8        29.72R
LAMPASAS       CLEAR     58  56  92 CALM      29.72R
$$

TXZ095>097-106>112-122>126-135>138-148>153-164>167-261200-
EAST TEXAS

CITY           SKY/WX    TMP DP  RH WIND       PRES   REMARKS
PARIS          CLEAR     57  52  82 MISG      29.68R
SULPHUR SPRNGS CLEAR     63  56  80 S3        29.69S
MOUNT PLEASANT CLEAR     57  57  99 CALM      29.69S
GILMER         CLEAR     58  57  97 CALM      29.69R
TYLER          CLEAR     63  61  93 S7        29.68S FOG
LONGVIEW       CLEAR     64  62  93 S5        29.68S
MARSHALL       MOCLDY    61  59  94 CALM      29.72R
ATHENS         CLOUDY    61  61 100 CALM      29.68R FOG
PALESTINE      FOG       67  67  97 SE3       29.70S VSB 1
JACKSONVILLE   FOG       68  67  97 S9        29.71S VSB 1/2
HENDERSON      CLOUDY    59  59 100 CALM      29.71R VSB 1/4
NACOGDOCHES    CLOUDY    68  66  94 S5        29.71S VSB<1/4
LUFKIN         FOG       70  66  87 S3        29.70S VSB 1
$$

SUPPLEMENTAL OBSERVATIONS (CENTRAL)

CITY           SKY/WX    TMP DP  RH WIND       PRES   REMARKS
LAKE TEXOMA      N/A     61  52  72 NE5         N/A
CADDO GRASSLND   N/A     55  52  88 N3          N/A
PAT MAYSE LAKE   N/A     55  54  94 NW2         N/A
GREENVILLE       N/A     61  55  82 S3          N/A
CEDAR HILL       N/A     66  59  77 S5          N/A
ATHENS           N/A     68  64  88 S7          N/A
MCGREGOR         N/A     66  64  94 SW5         N/A
TEMPLE           N/A     72  68  88 SW1         N/A
$$

SUPPLEMENTAL OBSERVATIONS (WEST)

CITY           SKY/WX    TMP DP  RH WIND       PRES   REMARKS
MILLERS CREEK    N/A     52  48  87 SW5         N/A
POSSUM KINGDOM   N/A     63  43  48 SW5         N/A
LBJ GRASSLAND    N/A     63  46  55 SE3         N/A
GRANBURY         N/A     55  50  82 S1          N/A
HAMBY            N/A     52  39  62 SE3         N/A
IVIE RESERVOIR   N/A     57  52  82 N3          N/A
COLORADO BEND    N/A     64  61  88 W6          N/A
$$

SUPPLEMENTAL OBSERVATIONS (EAST)

CITY           SKY/WX    TMP DP  RH WIND       PRES   REMARKS
CLARKSVILLE      N/A     57  55  94 E1          N/A
TEXARKANA        N/A     52  50  93 CALM        N/A
LINDEN           N/A     57  54  88 CALM        N/A
CADDO LAKE       N/A     57  55  94 CALM        N/A
GILMER           N/A     57  55  94 CALM        N/A
HENDERSON        N/A    N/A N/A N/A S2          N/A
LUFKIN           N/A     68  66  94 MISG        N/A
N SABINE NF      N/A     68  66  94 MISG        N/A
S SABINE NF      N/A    N/A N/A N/A CALM        N/A
$$

SUPPLEMENTAL OBSERVATIONS ARE A COLLECTION OF AUTOMATED INSTRUMENTS
THAT ARE MAINTAINED BY A VARIETY OF FEDERAL AND STATE AGENCIES.
CERTAIN ELEMENTS...SUCH AS HUMIDITY VALUES AND SUSTAINED WIND
SPEEDS...MAY BE APPROXIMATED.



USA.gov is the U.S. government's official web portal to all federal, state and local government web resources and services.